This is the latest recevied weather packets stored in our database for station/object LU3HGB-WX. If no packets are shown the sender has not sent any weather packets the latest 10 day(s).
| Time | Temp. | Humidity | Pressure | Rain* | Wind** | Luminosity | Snow |
|---|---|---|---|---|---|---|---|
| 1787935359 | 21.67° C | 38% | 1009 hPa | 0 mm | - | 876 W/m² | - |
| 1787935062 | 22.22° C | 39% | 1009 hPa | 0 mm | - | 874 W/m² | - |
| 1787934760 | 21.67° C | 37% | 1009 hPa | 0 mm | - | 875 W/m² | - |
| 1787934460 | 21.67° C | 39% | 1009 hPa | 0 mm | - | 880 W/m² | - |
| 1787934159 | 21.67° C | 40% | 1009 hPa | 0 mm | - | 878 W/m² | - |
| 1787933860 | 21.67° C | 39% | 1009 hPa | 0 mm | - | 878 W/m² | - |
| 1787933560 | 22.22° C | 40% | 1009 hPa | 0 mm | - | 874 W/m² | - |
| 1787933260 | 22.22° C | 40% | 1009 hPa | 0 mm | - | 871 W/m² | - |
| 1787932960 | 21.67° C | 42% | 1009 hPa | 0 mm | - | 862 W/m² | - |
| 1787932660 | 21.67° C | 41% | 1009 hPa | 0 mm | - | 862 W/m² | - |
| 1787932360 | 21.67° C | 39% | 1009 hPa | 0 mm | - | 860 W/m² | - |
| 1787932060 | 21.11° C | 43% | 1009 hPa | 0 mm | - | 851 W/m² | - |
| 1787931760 | 21.11° C | 43% | 1009 hPa | 0 mm | - | 847 W/m² | - |
| 1787931460 | 20.56° C | 45% | 1009 hPa | 0 mm | - | 846 W/m² | - |
| 1787931160 | 21.11° C | 44% | 1009 hPa | 0 mm | - | 832 W/m² | - |
| 1787930861 | 21.11° C | 43% | 1009 hPa | 0 mm | - | 826 W/m² | - |
| 1787930559 | 20.56° C | 43% | 1009 hPa | 0 mm | - | 818 W/m² | - |
| 1787930260 | 20.56° C | 43% | 1009 hPa | 0 mm | - | 812 W/m² | - |
| 1787929959 | 20.56° C | 42% | 1009 hPa | 0 mm | - | 803 W/m² | - |
| 1787929659 | 20° C | 44% | 1009 hPa | 0 mm | - | 794 W/m² | - |
| 1787929360 | 19.44° C | 42% | 1009 hPa | 0 mm | - | 784 W/m² | - |
| 1787929061 | 19.44° C | 43% | 1009 hPa | 0 mm | - | 771 W/m² | - |
| 1787928761 | 19.44° C | 43% | 1009 hPa | 0 mm | - | 761 W/m² | - |
| 1787928460 | 19.44° C | 43% | 1009 hPa | 0 mm | - | 751 W/m² | - |
| 1787928160 | 19.44° C | 44% | 1009 hPa | 0 mm | - | 734 W/m² | - |
* Rain latest hour (hover to see other rain measurements)
** Current wind speed in m/s (hover to see current wind gust speed)